Total_Precipitation_Accumulation
0.03 0.04 0.09 0.12 0.14 0.17 0.20 0.25 0.32 0.28 0.26 0.34 0.45 0.66 0.90 1.05 1.26 1.46 1.45 1.46 1.58 1.71 1.97 2.15 2.29 2.50 2.81 3.07 3.28 3.54 3.80 4.19 4.49 4.92 5.28 5.46 5.65 5.86 5.94 5.92 5.91 5.88 5.82 5.97
0.06 0.07 0.08 0.09 0.09 0.11 0.15 0.21 0.30 0.32 0.32 0.34 0.50 0.70 0.93 1.04 1.19 1.43 1.49 1.57 1.63 1.75 1.93 2.26 2.63 3.04 3.30 3.51 3.61 3.88 4.23 4.54 4.72 5.12 5.65 6.16 6.40 6.48 6.50 6.53 6.69 6.70 6.68 6.86
0.08 0.08 0.08 0.07 0.07 0.08 0.12 0.17 0.21 0.29 0.36 0.42 0.61 1.04 1.26 1.28 1.40 1.53 1.55 1.70 1.73 1.82 2.10 2.40 2.89 3.26 3.37 3.50 3.64 3.85 4.40 4.90 5.36 5.80 6.38 6.88 7.24 7.25 7.10 6.78 6.90 7.04 6.84 6.89
0.08 0.08 0.06 0.07 0.07 0.09 0.13 0.15 0.17 0.24 0.39 0.56 0.62 1.30 1.69 1.78 1.77 1.66 1.67 1.80 1.79 1.82 2.07 2.43 2.73 3.04 3.22 3.36 3.67 3.97 4.41 5.09 5.63 5.92 6.56 7.26 7.50 7.75 7.79 7.60 7.32 7.13 6.86 6.68
0.07 0.07 0.09 0.09 0.09 0.09 0.12 0.12 0.18 0.23 0.31 0.51 0.56 1.07 1.84 1.99 2.12 1.92 1.86 1.90 1.76 1.72 1.88 2.25 2.49 2.81 3.24 3.36 3.48 3.71 4.28 4.92 5.66 6.31 6.83 7.45 7.91 8.18 8.11 7.70 7.22 6.70 6.36 5.89
0.08 0.07 0.07 0.08 0.07 0.07 0.11 0.16 0.27 0.33 0.44 0.72 0.67 1.02 1.95 2.25 2.42 2.50 2.17 1.93 1.75 1.70 1.78 1.95 2.25 2.56 2.90 2.97 3.21 3.51 3.97 4.69 5.41 6.01 6.61 7.15 7.55 7.68 7.39 6.86 6.33 5.95 5.58 5.04
0.14 0.11 0.08 0.07 0.09 0.10 0.14 0.32 0.67 0.88 0.99 0.96 0.73 1.07 1.92 2.13 1.97 2.07 2.13 2.15 1.93 1.72 1.80 2.03 2.25 2.56 2.72 2.78 3.03 3.40 3.96 4.59 4.99 5.45 5.96 6.31 6.52 6.66 6.64 6.36 5.90 5.52 5.00 4.52
0.27 0.24 0.11 0.06 0.10 0.15 0.16 0.33 0.86 1.16 1.14 1.12 1.09 1.58 2.25 2.08 1.73 1.74 1.88 2.03 1.85 1.77 1.96 2.29 2.38 2.56 2.74 2.77 2.97 3.35 3.83 4.22 4.41 4.60 5.00 5.34 5.50 5.55 5.43 5.29 4.90 4.59 4.21 3.90
0.31 0.31 0.13 0.08 0.09 0.11 0.21 0.28 0.45 0.68 0.75 1.13 1.61 2.15 2.76 2.58 2.01 1.81 1.86 1.89 1.92 1.90 2.01 2.30 2.44 2.55 2.67 2.71 2.89 3.09 3.38 3.56 3.74 3.89 4.10 4.33 4.38 4.30 4.17 4.01 3.76 3.56 3.37 3.02
0.30 0.31 0.21 0.13 0.14 0.15 0.21 0.32 0.46 0.76 1.12 1.51 1.84 2.60 3.44 3.30 2.61 2.13 2.01 1.95 1.96 1.93 1.97 2.18 2.28 2.40 2.47 2.47 2.57 2.66 2.88 3.04 3.22 3.31 3.34 3.27 3.32 3.27 3.12 2.93 2.81 2.64 2.46 2.37
0.39 0.42 0.30 0.23 0.24 0.27 0.29 0.38 0.57 0.76 0.86 1.47 2.16 3.09 3.28 3.33 3.00 2.58 2.15 1.91 1.88 1.88 1.87 1.96 2.06 2.08 2.10 2.11 2.18 2.34 2.52 2.71 2.81 2.83 2.90 2.85 2.74 2.55 2.44 2.30 2.19 2.12 2.06 2.06
0.39 0.52 0.50 0.34 0.29 0.25 0.29 0.41 0.62 0.99 1.04 1.22 1.89 3.11 3.11 3.33 3.23 2.89 2.48 2.17 2.04 1.97 1.85 1.76 1.78 1.80 1.84 1.93 2.04 2.18 2.22 2.32 2.38 2.48 2.55 2.59 2.53 2.36 2.16 2.05 1.96 1.95 1.95 1.93
0.38 0.63 0.91 0.94 0.80 0.45 0.35 0.37 0.48 0.66 0.96 1.34 1.96 3.09 3.15 3.10 3.09 3.05 2.78 2.43 2.19 2.08 1.89 1.81 1.80 1.76 1.80 2.00 2.07 2.02 2.10 2.16 2.24 2.39 2.42 2.44 2.49 2.35 2.13 2.04 2.05 2.03 1.97 1.94
0.32 0.64 1.09 1.50 1.43 0.84 0.60 0.47 0.49 0.69 1.16 1.37 1.73 2.46 2.76 2.84 2.99 3.21 3.15 2.64 2.19 2.09 1.99 2.04 2.09 2.03 1.95 2.01 2.20 2.19 2.27 2.33 2.33 2.32 2.26 2.10 2.03 2.03 2.04 2.00 1.97 1.91 1.85 1.87
0.41 0.72 0.66 0.62 0.66 0.66 0.62 0.60 0.63 0.73 0.84 1.25 1.68 2.21 2.65 2.84 2.82 2.87 2.75 2.54 2.17 2.08 2.19 2.17 2.09 2.09 2.00 1.98 2.16 2.31 2.35 2.31 2.53 2.56 2.42 2.24 2.04 2.02 2.03 1.98 1.91 1.83 1.78 1.67
0.46 0.71 0.69 0.66 0.55 0.65 0.69 0.71 0.80 0.91 0.98 1.22 1.75 2.47 2.79 2.87 2.83 2.85 2.75 2.59 2.51 2.43 2.36 2.32 2.31 2.29 2.22 2.11 2.20 2.40 2.42 2.37 2.50 2.49 2.55 2.57 2.47 2.43 2.29 2.09 1.99 1.97 1.94 1.88
0.49 0.78 1.04 1.05 0.68 0.92 1.37 1.04 1.00 1.18 1.27 1.54 2.19 2.53 2.45 2.54 2.72 2.92 2.99 2.88 2.79 2.77 2.63 2.59 2.63 2.57 2.57 2.54 2.47 2.49 2.43 2.38 2.42 2.53 2.60 2.61 2.57 2.48 2.38 2.12 2.02 2.07 2.03 1.97
0.54 0.89 1.17 1.24 1.35 2.07 1.87 1.13 1.10 1.35 1.56 1.75 2.03 2.13 2.17 2.20 2.33 2.47 2.61 2.76 2.74 2.68 2.61 2.65 2.78 2.75 2.74 2.64 2.59 2.51 2.49 2.54 2.63 2.69 2.67 2.57 2.42 2.39 2.31 2.24 2.19 2.13 2.05 1.98
0.39 0.82 1.30 1.47 1.86 2.10 1.89 1.23 1.26 1.73 2.32 1.95 1.94 1.83 1.66 1.65 1.95 2.45 2.50 2.51 2.68 2.70 2.68 2.65 2.64 2.64 2.69 2.62 2.54 2.48 2.47 2.52 2.57 2.57 2.43 2.33 2.33 2.35 2.19 2.19 2.17 2.13 2.04 1.92
0.43 0.67 1.30 1.61 2.21 2.61 2.37 1.28 1.06 1.64 2.92 2.22 1.92 1.87 1.74 1.84 2.40 2.65 2.45 2.41 2.40 2.39 2.44 2.36 2.21 2.17 2.36 2.51 2.50 2.40 2.33 2.33 2.31 2.15 1.96 1.85 1.94 2.03 1.91 1.81 1.80 1.82 1.86 1.86
1.06 1.19 1.48 1.79 2.36 2.58 1.57 0.97 1.18 2.52 3.11 2.35 1.94 1.83 1.81 2.10 2.35 2.12 1.91 2.03 2.08 2.05 1.95 1.90 1.87 1.95 2.09 2.15 2.20 2.23 2.14 2.17 2.06 1.86 1.76 1.76 1.72 1.74 1.70 1.72 1.73 1.67 1.63 1.69
1.37 1.58 1.70 1.94 2.55 2.69 1.35 1.16 1.88 2.32 1.89 1.80 1.76 1.70 1.66 1.63 1.55 1.54 1.59 1.62 1.64 1.67 1.64 1.59 1.70 1.81 1.86 1.81 1.81 1.92 1.93 1.94 1.83 1.72 1.65 1.71 1.69 1.57 1.65 1.83 1.78 1.71 1.72 1.71
1.42 1.58 1.77 2.05 2.47 2.11 1.42 1.38 1.53 1.56 1.54 1.44 1.44 1.40 1.34 1.32 1.17 1.22 1.42 1.34 1.29 1.31 1.38 1.45 1.49 1.63 1.74 1.74 1.77 1.82 1.79 1.70 1.69 1.73 1.67 1.59 1.53 1.62 1.70 1.82 1.78 1.69 1.65 1.54
1.47 1.21 1.46 1.72 1.81 1.59 1.42 1.37 1.30 1.18 1.16 1.10 1.18 1.33 1.28 1.25 1.26 1.31 1.37 1.29 1.21 1.25 1.27 1.34 1.40 1.46 1.60 1.58 1.59 1.71 1.65 1.60 1.71 1.80 1.72 1.58 1.48 1.48 1.55 1.62 1.64 1.55 1.47 1.39
1.45 1.43 1.57 1.74 1.69 1.60 1.59 1.36 1.23 1.13 1.02 0.98 1.06 1.16 1.24 1.28 1.33 1.34 1.31 1.27 1.28 1.38 1.40 1.39 1.42 1.42 1.41 1.41 1.42 1.43 1.46 1.56 1.74 1.70 1.55 1.43 1.31 1.28 1.33 1.34 1.34 1.32 1.22 1.17
1.18 1.43 1.70 1.83 1.59 1.62 1.72 1.43 1.17 1.14 1.08 1.07 1.08 1.16 1.29 1.33 1.42 1.37 1.28 1.25 1.28 1.34 1.33 1.39 1.36 1.26 1.26 1.33 1.37 1.29 1.23 1.37 1.62 1.61 1.37 1.22 1.14 1.10 1.03 1.03 1.05 1.04 1.02 1.00